DW5714 Weather Reports


Display with metric or nautical units.
time (UTC)temp
F
wind
direction
speed
MPH
gust
MPH
rain 1hr
in
rain 24hr
in
rain mn
in
humidity
%
barometer
mb
20260504184525 68 217 2.0 13.0 0.00 0.00 0.00 39 1010.5
20260504183024 67 200 4.0 16.0 0.00 0.00 0.00 40 1010.5
20260504181527 67 277 4.0 15.0 0.00 0.00 0.00 40 1010.8
20260504180020 65 238 5.0 14.0 0.00 0.00 0.00 43 1010.7
20260504174519 65 169 4.0 14.0 0.00 0.00 0.00 41 1010.8
20260504173018 65 153 7.0 13.0 0.00 0.00 0.00 42 1011.0
20260504171516 65 296 6.0 12.0 0.00 0.00 0.00 42 1011.2
20260504081556 40 138 0.0 3.0 0.00 0.00 0.00 79 1014.2
20260504044535 41 338 0.0 2.0 0.00 0.00 0.00 74 1014.2
20260504043030 41 336 0.0 0.0 0.00 0.00 0.00 72 1014.3
20260504041527 42 336 0.0 0.0 0.00 0.00 0.00 73 1014.3
20260504040024 42 336 0.0 0.0 0.00 0.00 0.00 71 1014.4
20260504034524 43 336 0.0 0.0 0.00 0.00 0.00 71 1014.4
20260504033024 43 336 0.0 0.0 0.00 0.00 0.00 71 1014.4
20260504031525 42 336 0.0 0.0 0.00 0.00 0.00 72 1014.4
20260504030022 42 336 0.0 0.0 0.00 0.00 0.00 72 1014.4
20260504024522 42 336 0.0 0.0 0.00 0.00 0.00 71 1014.5
20260504023022 42 336 0.0 0.0 0.00 0.00 0.00 67 1014.6
20260504021522 43 336 0.0 0.0 0.00 0.00 0.00 65 1014.6
20260504020020 43 336 0.0 0.0 0.00 0.00 0.00 64 1014.5
20260504014520 45 336 0.0 1.0 0.00 0.00 0.00 63 1014.4
20260504013026 44 336 0.0 2.0 0.00 0.00 0.00 66 1014.1
20260504011520 45 336 0.0 0.0 0.00 0.00 0.00 64 1014.1
20260504010018 46 336 0.0 2.0 0.00 0.00 0.00 63 1013.9
20260504004518 45 336 0.0 0.0 0.00 0.00 0.00 68 1013.8
20260504003017 45 336 0.0 1.0 0.00 0.00 0.00 65 1013.7
20260504001517 45 336 0.0 0.0 0.00 0.00 0.00 61 1013.5
20260504000045 47 336 0.0 0.0 0.00 0.00 0.00 60 1013.4
20260503234516 48 336 0.0 0.0 0.00 0.00 0.00 58 1013.5
20260503233016 49 336 0.0 0.0 0.00 0.00 0.00 54 1013.4
20260503231515 49 336 0.0 5.0 0.00 0.00 0.00 52 1013.4
20260503230013 49 334 2.0 5.0 0.00 0.00 0.00 53 1013.4
20260503224514 50 355 2.0 9.0 0.00 0.00 0.00 52 1013.4
20260503223015 50 329 4.0 11.0 0.00 0.00 0.00 53 1013.6
20260503221513 50 342 3.0 17.0 0.00 0.00 0.00 52 1013.6
20260503220012 51 346 6.0 14.0 0.00 0.00 0.00 51 1013.6
20260503214512 51 314 5.0 14.0 0.00 0.00 0.00 50 1013.7
20260503213011 51 333 2.0 12.0 0.00 0.00 0.00 48 1013.5
20260503211514 51 327 4.0 8.0 0.00 0.00 0.00 46 1013.3
20260503210011 51 304 4.0 13.0 0.00 0.00 0.00 44 1013.1
20260503204509 52 315 6.0 13.0 0.00 0.00 0.00 46 1013.2
20260503203018 51 342 2.0 10.0 0.00 0.00 0.00 44 1013.2
20260503201509 52 355 2.0 10.0 0.00 0.00 0.00 42 1013.0
20260503200006 51 308 5.0 11.0 0.00 0.00 0.00 45 1013.2
20260503194507 51 324 1.0 9.0 0.00 0.00 0.00 41 1013.4
20260503193008 52 340 3.0 9.0 0.00 0.00 0.00 41 1013.6
20260503191502 53 331 4.0 17.0 0.00 0.00 0.00 38 1013.7
20260503190104 54 17 5.0 12.0 0.00 0.00 0.00 38 1014.1